logo
App data

Sky To Fly: Faster Than Wind

Store | Hub | SteamDB
Developer: AIVIK LLC Publisher: Absolutist Ltd.
Genre: Action, Adventure, Indie, Racing, Simulation, Sports
Languages: English, German, Russian
Tags: Action (25), Racing (24), Adventure (24), Indie (23), Simulation (22), Sports (22), Steampunk (10)
Category: Single-player, Steam Trading Cards, Steam Cloud
Release date: Mar 25, 2016 (previously in Early Access)
Price: $3.99
Old userscore: 71% Owners: 0 .. 20,000
Followers: 719
Playtime total: 02:48 (average) 03:19 (median)

Steam Spy is still in beta, so expect major bugs.

Owners data:

Access restricted.

This feature is only available to users with special access rights. Sorry.

If you want to proceed, you need to register or log in first and then back Steam Spy on Patreon. Look for Indie or Pro pledge.

Don't forget to use the same email as on Steam Spy!

Audience in 2 weeks:

Access restricted.

This feature is only available to users with special access rights. Sorry.

If you want to proceed, you need to register or log in first and then back Steam Spy on Patreon. Look for Indie or Pro pledge.

Don't forget to use the same email as on Steam Spy!

Peak daily concurrent players:

CCU data courtesy of SteamDB. Used with permission.

Hourly concurrent players:

YouTube:

The views data is based on top 50 videos uploaded last week. Actual number of views might be more than the number shown.

The displayed number of videos uploaded yesterday is limited to 50, so if there were more videos uploaded, the number will still show 50.

If the game has commonly used word as its name (like "FEAR" or "Volume") its number of Youtube views might be wrong.

Games similar to this one:

# Game Release date
Price
Score rank
(Userscore / Metascore)
Owners
Players
Playtime (Median)
1 Little Big Adventure 2 Oct 20, 2015 $3.9998% (98%)20,000 .. 50,0000%00:00 (00:00)
2 Militia Dec 2, 2015 $2.99N/A (N/A)0 .. 20,0000%00:00 (00:00)
3 Seven Kingdoms: Ancient Adversaries Mar 22, 2016 $5.99N/A (N/A)0 .. 20,0000%00:00 (00:00)
4 Dungeon Warfare Nov 4, 2015 $9.99N/A (N/A)20,000 .. 50,0000%00:00 (00:00)
5 Spider: Rite of the Shrouded Moon Aug 6, 2015 $9.99N/A (N/A)20,000 .. 50,0000%00:00 (00:00)
6 Voodoo Vince: Remastered Apr 17, 2017 $14.9994% (96%/63%)0 .. 20,0000%00:00 (00:00)
7 Defend The Highlands Nov 6, 2015 $2.49N/A (N/A)100,000 .. 200,0001.8%00:53 (00:52)
8 Imperium Galactica Jan 19, 2017 $4.99N/A (N/A)0 .. 20,0000%00:00 (00:00)
9 Darknet Jun 8, 2017 $7.49N/A (N/A)0 .. 20,0005.56%03:13 (01:04)
10 Hegemony Gold: Wars of Ancient Greece Mar 30, 2012 $14.99N/A (N/A)20,000 .. 50,0000%00:00 (00:00)
11 Templar Battleforce Sep 21, 2015 $9.99N/A (N/A)20,000 .. 50,0000%00:00 (00:00)
12 PixelJunk Shooter Nov 11, 2013 $8.99N/A (N/A/73%)100,000 .. 200,0000%00:00 (00:00)
13 Chicken Invaders 2 Mar 4, 2016 $3.99N/A (N/A)0 .. 20,0000%00:00 (00:00)
14 Outcast 1.1 Dec 18, 2014 $5.9991% (95%)20,000 .. 50,0000%00:00 (00:00)
15 Audio Arena Jul 25, 2016 $2.79N/A (N/A)0 .. 20,0000%00:00 (00:00)
16 Handsome Mr. Frog Aug 8, 2016 $0.9988% (94%)0 .. 20,0000%00:00 (00:00)
17 Kalimba Apr 22, 2015 $9.99N/A (N/A/81%)0 .. 20,0000%00:00 (00:00)
18 Flywrench Aug 24, 2015 $6.9988% (94%)0 .. 20,0000%00:00 (00:00)
19 Majesty Gold HD Sep 4, 2009 $9.99N/A (N/A)100,000 .. 200,0000%00:00 (00:00)
20 Run or Die Dec 11, 2014 $4.9988% (94%)0 .. 20,0000%00:00 (00:00)
21 Gold Rush! Classic Jul 25, 2014 $2.99N/A (N/A)200,000 .. 500,0001.14%02:08 (01:48)
22 Stick it to The Man! Dec 13, 2013 $7.99N/A (N/A/83%)50,000 .. 100,0000%00:00 (00:00)
23 Neon Chrome Apr 28, 2016 $14.9988% (94%/74%)200,000 .. 500,0000.7%00:10 (00:03)
24 Star Trek: Judgment Rites May 8, 2015 $9.99N/A (N/A)0 .. 20,0000%00:00 (00:00)
25 Supercharged Robot VULKAISER Jun 4, 2015 $4.99N/A (N/A)20,000 .. 50,0000%00:00 (00:00)
26 Ys VI: The Ark of Napishtim Apr 28, 2015 $19.9985% (93%)50,000 .. 100,0000%00:00 (00:00)
27 Anarcute Jul 12, 2016 $14.9985% (93%/79%)0 .. 20,0000%00:00 (00:00)
28 Super Cyborg Jul 8, 2015 $4.9985% (93%)20,000 .. 50,0000%00:00 (00:00)
29 RIVE: Wreck, Hack, Die, Retry! Sep 13, 2016 $14.9985% (93%)200,000 .. 500,0000%00:00 (00:00)
30 Kick Ass Commandos Nov 17, 2016 $9.9985% (93%)20,000 .. 50,0000%00:00 (00:00)
31 Eufloria HD Oct 14, 2014 $14.99N/A (N/A)200,000 .. 500,0001.18%00:09 (00:03)
32 Major Mayhem Feb 24, 2014 $4.99N/A (N/A)20,000 .. 50,0000%00:00 (00:00)
33 Bleed Jul 3, 2013 $4.9985% (93%)100,000 .. 200,0000%00:00 (00:00)
34 Pharaoh Rebirth+ Mar 17, 2016 $9.9985% (93%)0 .. 20,0000%00:00 (00:00)
35 Adventure in the Tower of Flight Dec 23, 2015 $4.99N/A (N/A)0 .. 20,0000%00:00 (00:00)
36 Battle Academy 2: Eastern Front Sep 12, 2014 $39.9980% (92%/78%)0 .. 20,0000%00:00 (00:00)
37 Below Kryll Sep 7, 2015 $0.99N/A (N/A)0 .. 20,0000%00:00 (00:00)
38 Mad Bullets Jun 10, 2016 $1.99N/A (N/A)0 .. 20,0002.86%19:13 (06:24)
39 Super Trench Attack! Jul 24, 2014 $4.99N/A (N/A)100,000 .. 200,0000%00:00 (00:00)
40 Wars and Warriors: Joan of Arc Sep 3, 2015 $6.99N/A (N/A/60%)0 .. 20,0000%00:00 (00:00)
41 Death Ray Manta SE Sep 17, 2015 $1.99N/A (N/A)50,000 .. 100,0000%00:00 (00:00)
42 Knightmare Tower Jun 16, 2014 $3.9980% (92%)0 .. 20,0000%00:00 (00:00)
43 Tallowmere Mar 3, 2015 $3.9980% (92%)20,000 .. 50,0000%00:00 (00:00)
44 The Juicer Sep 11, 2015 $0.99N/A (N/A)20,000 .. 50,0000%00:00 (00:00)
45 Ittle Dew Jul 23, 2013 $9.99N/A (N/A/67%)100,000 .. 200,0000.88%00:12 (00:04)
46 Near Death Aug 2, 2016 $14.9976% (91%/70%)0 .. 20,0000%00:00 (00:00)
47 Swords and Soldiers HD Dec 2, 2010 $9.99N/A (N/A)200,000 .. 500,0000%00:00 (00:00)
48 Khet 2.0 Oct 1, 2014 $9.99N/A (N/A)50,000 .. 100,0000%00:00 (00:00)
49 Valley Aug 24, 2016 $19.9976% (91%)100,000 .. 200,0000%00:00 (00:00)
50 Momodora III Jul 1, 2014 $1.9976% (91%)50,000 .. 100,0000%00:00 (00:00)
51 Skulls of the Shogun Jul 29, 2013 $9.9976% (91%/72%)200,000 .. 500,0000.7%05:15 (01:45)
52 Demons with Shotguns Apr 25, 2016 $9.99N/A (N/A)0 .. 20,0000%00:00 (00:00)
53 Great Big War Game Aug 28, 2012 $6.99N/A (N/A)0 .. 20,0000%00:00 (00:00)
54 Clash of Puppets Dec 16, 2014 $4.99N/A (N/A)0 .. 20,0000%00:00 (00:00)
55 Blue Estate The Game Apr 8, 2015 $3.89N/A (N/A/59%)50,000 .. 100,0001.19%00:01 (00:00)
56 Angry Video Game Nerd II: ASSimilation Mar 29, 2016 $9.99N/A (N/A)20,000 .. 50,0000%00:00 (00:00)
57 Dandy: Or a Brief Glimpse Into the Life of the Candy Alchemist Aug 4, 2015 $9.99N/A (N/A)0 .. 20,0000%00:00 (00:00)
58 Earth Defense Force: Insect Armageddon Dec 14, 2011 $9.9976% (91%/69%)50,000 .. 100,0000%00:00 (00:00)
59 Armed with Wings: Rearmed Jun 1, 2017 $9.99N/A (N/A)20,000 .. 50,0000%00:00 (00:00)
60 Miracle Fly Oct 26, 2015 $7.99N/A (N/A)20,000 .. 50,0000%00:00 (00:00)
61 Wild Guns Reloaded Jul 11, 2017 $19.9972% (90%)0 .. 20,00033.33%00:03 (00:01)
62 Explosionade Sep 23, 2015 $0.99N/A (N/A)20,000 .. 50,0000%00:00 (00:00)
63 Kohan: Ahriman's Gift Aug 24, 2011 $9.99N/A (N/A/79%)0 .. 20,0000%00:00 (00:00)
64 Planet of the Eyes Aug 24, 2015 $9.99N/A (N/A/66%)50,000 .. 100,0000%00:00 (00:00)
65 Kohan II: Kings of War Aug 24, 2011 $9.99N/A (N/A/81%)20,000 .. 50,0000%00:00 (00:00)
66 Lethe - Episode One Aug 1, 2016 $14.9972% (90%)0 .. 20,0000%00:00 (00:00)
67 Superstatic Sep 15, 2015 $4.99N/A (N/A)0 .. 20,0000%00:00 (00:00)
68 Fort Meow Jun 24, 2015 $7.9972% (90%)0 .. 20,0000%00:00 (00:00)
69 Silent Storm Gold Edition Oct 2, 2013 $9.99N/A (N/A/83%)100,000 .. 200,0000%00:00 (00:00)
70 Headlander Jul 25, 2016 $19.99N/A (N/A/74%)50,000 .. 100,0001.27%04:02 (01:20)
71 Death's Hangover Jan 20, 2017 $4.9972% (90%)50,000 .. 100,0001.56%01:07 (00:22)
72 Warhammer 40,000: Dawn of War Winter Assault Aug 7, 2007 $12.9972% (90%)1,000,000 .. 2,000,0001.09%04:16 (02:50)
73 Apocalypse: Party's Over May 30, 2016 $4.99N/A (N/A)0 .. 20,0000%00:00 (00:00)
74 Weird Hero Nov 18, 2016 $2.99N/A (N/A)0 .. 20,0000%00:00 (00:00)
75 Warrior Kings: Battles May 6, 2014 $9.99N/A (N/A/64%)0 .. 20,0000%00:00 (00:00)
76 CastleStorm Jul 29, 2013 $9.9969% (89%/73%)200,000 .. 500,0000%00:00 (00:00)
77 Avoid - Sensory Overload Apr 8, 2014 $4.99N/A (N/A)0 .. 20,0000%00:00 (00:00)
78 Graviteam Tactics: Mius-Front Mar 4, 2016 $34.9969% (89%)0 .. 20,0000%00:00 (00:00)
79 MoonBase Commander Feb 6, 2014 $5.99N/A (N/A/77%)20,000 .. 50,0000%00:00 (00:00)
80 Zombo Buster Rising Oct 2, 2016 $1.99N/A (N/A)0 .. 20,0002%01:53 (00:37)
81 Spectromancer Feb 11, 2009 $9.9969% (89%)20,000 .. 50,0000%00:00 (00:00)
82 Reverse Crawl Sep 24, 2015 $5.9969% (89%)50,000 .. 100,0000%00:00 (00:00)
83 Sneaky Sneaky Nov 12, 2014 $4.99N/A (N/A/63%)20,000 .. 50,0000%00:00 (00:00)
84 Greed Corp Dec 10, 2010 $9.99N/A (N/A/76%)200,000 .. 500,0000%00:00 (00:00)
85 Blacksea Odyssey Jun 1, 2016 $9.9965% (88%/74%)20,000 .. 50,0000%00:00 (00:00)
86 Tcheco in the Castle of Lucio Jun 22, 2015 $0.99N/A (N/A)50,000 .. 100,0000%00:00 (00:00)
87 Battlepillars Gold Edition Apr 28, 2014 $4.9965% (88%)20,000 .. 50,0000%00:00 (00:00)
88 Atom Zombie Smasher Mar 14, 2011 $9.99N/A (N/A/75%)200,000 .. 500,0000%00:00 (00:00)
89 Syrian Warfare Feb 21, 2017 $14.9965% (88%)20,000 .. 50,0005%01:52 (00:37)
90 Steel Rain Dec 3, 2015 $9.99N/A (N/A)0 .. 20,0000%00:00 (00:00)
91 Interloper May 21, 2015 $165% (88%/77%)50,000 .. 100,0000%00:00 (00:00)
92 Anodyne Mar 22, 2013 $9.9965% (88%/75%)100,000 .. 200,0001.1%04:29 (01:29)
93 Viking Squad Oct 4, 2016 $14.99N/A (N/A)0 .. 20,0000%00:00 (00:00)
94 The Fall May 30, 2014 $9.9965% (88%/76%)200,000 .. 500,0000.89%03:45 (01:15)
95 Earn to Die 2 May 5, 2016 $4.99N/A (N/A)0 .. 20,0000%00:00 (00:00)
96 Amaranthine Apr 6, 2016 $2.99N/A (N/A)20,000 .. 50,0009.38%02:10 (01:27)
97 The Way May 20, 2016 $14.9965% (88%/67%)20,000 .. 50,0000%00:00 (00:00)
98 Tron 2.0 Oct 10, 2014 $9.9962% (87%/84%)20,000 .. 50,0003.23%00:10 (00:03)
99 Civilization IV: Warlords Apr 6, 2007 $4.9962% (87%/84%)1,000,000 .. 2,000,0000%00:00 (00:00)
100 Mr. Shifty Apr 13, 2017 $14.9962% (87%)200,000 .. 500,0000.67%14:35 (04:51)
101 Super Furball Apr 21, 2015 $3.99N/A (N/A)0 .. 20,0000%00:00 (00:00)
102 Shadow Blade: Reload Aug 10, 2015 $14.9962% (87%/70%)20,000 .. 50,0000%00:00 (00:00)
103 Civilization IV: Warlords Apr 6, 2007 $4.9962% (87%/84%)1,000,000 .. 2,000,0000%00:00 (00:00)
104 Supreme Commander Sep 28, 2011 $14.99N/A (N/A/86%)500,000 .. 1,000,0000.52%00:02 (00:00)
105 Age of Wonders Shadow Magic Oct 2010 $9.9962% (87%/82%)100,000 .. 200,0000%00:00 (00:00)
106 Spooky Cats Jun 4, 2015 $2.99N/A (N/A)20,000 .. 50,0002.08%01:30 (00:30)
107 Sang-Froid - Tales of Werewolves Apr 5, 2013 Free62% (87%/79%)200,000 .. 500,0000%00:00 (00:00)
108 The Tiny Tale 2 Jan 30, 2015 $6.99N/A (N/A)0 .. 20,0000%00:00 (00:00)
109 Arcane Sorcery Sep 15, 2015 $4.99N/A (N/A)0 .. 20,0000%00:00 (00:00)
110 Neon Shadow Aug 25, 2016 $4.99N/A (N/A)0 .. 20,0000%00:00 (00:00)
111 The Haunted: Hells Reach Oct 24, 2011 $8.9959% (86%/51%)50,000 .. 100,0000%00:00 (00:00)
112 Meltdown Jun 5, 2014 $6.99N/A (N/A)50,000 .. 100,0000%00:00 (00:00)
113 Ghost Master Dec 21, 2006 $4.9959% (86%/81%)100,000 .. 200,0000%00:00 (00:00)
114 Time Rifters Oct 21, 2014 $9.9959% (86%)0 .. 20,0000%00:00 (00:00)
115 Star Ruler Sep 20, 2010 $9.9959% (86%)100,000 .. 200,0000%00:00 (00:00)
116 VelocityUltra Dec 12, 2013 $9.99N/A (N/A)50,000 .. 100,0001.35%02:51 (00:57)
117 Executive Assault Jul 17, 2015 $12.9959% (86%)50,000 .. 100,0007.14%01:37 (00:32)
118 Super Chibi Knight Jun 24, 2015 $4.99N/A (N/A)20,000 .. 50,0002.56%03:46 (01:15)
119 N2O: Nitrous Oxide Jun 29, 2015 $4.99N/A (N/A)0 .. 20,0000%00:00 (00:00)
120 Western 1849 Reloaded Feb 10, 2017 $4.99N/A (N/A)0 .. 20,0000%00:00 (00:00)
121 Rush for Berlin Gold Oct 29, 2009 $4.99N/A (N/A/76%)20,000 .. 50,0000%00:00 (00:00)
122 CRYPTARK Jun 20, 2017 $14.9956% (85%/80%)50,000 .. 100,0003.23%00:04 (00:01)
123 NOBUNAGA'S AMBITION: Souzou (Traditional Chinese version) Aug 2014 $24.99N/A (N/A)20,000 .. 50,0000%00:00 (00:00)
124 Dustoff Heli Rescue Mar 6, 2015 $3.99N/A (N/A)20,000 .. 50,0000%00:00 (00:00)
125 ShootMania Storm Apr 10, 2013 $19.99N/A (N/A/76%)50,000 .. 100,0000%00:00 (00:00)
126 ENSLAVED: Odyssey to the West Premium Edition Oct 24, 2013 $19.9956% (85%/70%)200,000 .. 500,0000%00:00 (00:00)
127 Magnifico Dec 2, 2014 $4.99N/A (N/A)50,000 .. 100,0000%00:00 (00:00)
128 Gurgamoth Feb 16, 2016 $4.99N/A (N/A)20,000 .. 50,0001.59%03:49 (01:16)
129 Slash or Die Jun 3, 2016 $2.99N/A (N/A)50,000 .. 100,0002.46%04:48 (03:17)
130 Rooks Keep Dec 5, 2014 $7.99N/A (N/A)20,000 .. 50,0000%00:00 (00:00)
131 Last Knight: Rogue Rider Edition Oct 3, 2014 $7.99N/A (N/A)20,000 .. 50,0000%00:00 (00:00)
132 Child Of Ault Jan 24, 2017 $6.99N/A (N/A)0 .. 20,0000%00:00 (00:00)
133 Ace of Protectors Jun 27, 2016 $1.99N/A (N/A)0 .. 20,0002.38%02:52 (00:57)
134 Fat Chicken Dec 4, 2014 $9.99N/A (N/A)0 .. 20,0000%00:00 (00:00)
135 Foresight Nov 28, 2014 $4.99N/A (N/A)0 .. 20,0000%00:00 (00:00)
136 Conflict Desert Storm May 28, 2012 $6.9953% (84%/56%)20,000 .. 50,0000%00:00 (00:00)
137 Advanced Tactics Gold Aug 15, 2014 $29.99N/A (N/A)0 .. 20,0000%00:00 (00:00)
138 Yomi May 8, 2015 $14.9953% (84%)0 .. 20,0000%00:00 (00:00)
139 Act of War: Direct Action Mar 12, 2008 $2.9953% (84%/82%)20,000 .. 50,0000%00:00 (00:00)
140 Galaxy Admirals Jan 17, 2017 $1.99N/A (N/A)50,000 .. 100,0000.83%00:30 (00:10)
141 Legend (1994) Nov 10, 2015 $4.99N/A (N/A)0 .. 20,0000%00:00 (00:00)
142 Crush Your Enemies Jul 13, 2016 $9.99N/A (N/A/63%)20,000 .. 50,0000%00:00 (00:00)
143 Rack N Ruin Sep 1, 2015 $9.99N/A (N/A)20,000 .. 50,0000%00:00 (00:00)
144 Battle Group 2 Jun 13, 2014 $7.9951% (83%)50,000 .. 100,0000%00:00 (00:00)
145 NOBUNAGA'S AMBITION: Sphere of Influence Sep 1, 2015 $59.9951% (83%/70%)20,000 .. 50,0000%00:00 (00:00)
146 Bulletstorm: Full Clip Edition Apr 7, 2017 $39.9951% (83%/76%)20,000 .. 50,0008.33%04:19 (02:51)
147 Delta Force 2 Jun 18, 2009 $1.24N/A (N/A)20,000 .. 50,0000%00:00 (00:00)
148 TY the Tasmanian Tiger 4 Sep 17, 2015 $5.9951% (83%)20,000 .. 50,0000%00:00 (00:00)
149 GIBZ Apr 7, 2017 $7.9951% (83%)0 .. 20,0000%00:00 (00:00)
150 Eador: Genesis Oct 14, 2013 $2.9951% (83%)50,000 .. 100,0000%00:00 (00:00)
151 Orbital Gear Aug 7, 2014 $9.9951% (83%/59%)200,000 .. 500,0000.44%03:13 (01:04)
152 Vector Strain Dec 9, 2015 $4.99N/A (N/A)20,000 .. 50,0000%00:00 (00:00)
153 Disciples Sacred Lands Gold Oct 7, 2014 $7.9948% (82%)20,000 .. 50,0000%00:00 (00:00)
154 Crysis 2 - Maximum Edition Mar 22, 2011 $29.9948% (82%)100,000 .. 200,0000%00:00 (00:00)
155 Defense Zone Jul 14, 2014 $2.99N/A (N/A)0 .. 20,0000%00:00 (00:00)
156 htoL#NiQ: The Firefly Diary / htoL#NiQ-- May 18, 2016 $9.9948% (82%)20,000 .. 50,0000%00:00 (00:00)
157 Age of Wonders Oct 2010 $5.99N/A (N/A)100,000 .. 200,0000%00:00 (00:00)
158 Square Brawl Oct 22, 2015 $4.9948% (82%)0 .. 20,0000%00:00 (00:00)
159 After The End: The Harvest Jun 2, 2017 $4.99N/A (N/A)20,000 .. 50,0000%00:00 (00:00)
160 Fleet Command Oct 26, 2006 $9.99N/A (N/A)50,000 .. 100,0000%00:00 (00:00)
161 Anomaly 2 May 15, 2013 $14.9946% (81%/77%)200,000 .. 500,0001.11%01:21 (00:53)
162 Enemy Mind Jun 6, 2014 $9.99N/A (N/A)200,000 .. 500,0000%00:00 (00:00)
163 Defense Zone 3 Ultra HD Dec 14, 2016 $2.99N/A (N/A)0 .. 20,0000%00:00 (00:00)
164 Junk Jack Nov 30, 2016 $14.99N/A (N/A)0 .. 20,0000%00:00 (00:00)
165 rymdkapsel Jan 30, 2014 $7.9946% (81%/77%)0 .. 20,0000%00:00 (00:00)
166 In Verbis Virtus Apr 3, 2015 $4.9946% (81%)50,000 .. 100,0000%00:00 (00:00)
167 Shadow Ops: Red Mercury Jul 2, 2014 $6.99N/A (N/A/61%)20,000 .. 50,0000%00:00 (00:00)
168 Jim Power -The Lost Dimension Sep 30, 2015 $4.99N/A (N/A)0 .. 20,0000%00:00 (00:00)
169 She Wants Me Dead May 13, 2016 $7.99N/A (N/A)0 .. 20,0000%00:00 (00:00)
170 Toadled Sep 22, 2016 $0.99N/A (N/A)50,000 .. 100,0000%00:00 (00:00)
171 PixelJunk Shooter Ultimate Oct 21, 2015 $9.9946% (81%)0 .. 20,0000%00:00 (00:00)
172 Weapon of Choice Sep 23, 2015 $1.24N/A (N/A)0 .. 20,0002.33%01:31 (00:30)
173 Dominions 3: The Awakening Sep 10, 2013 $19.99N/A (N/A/82%)0 .. 20,0000%00:00 (00:00)
174 Trigger Runners Mar 3, 2016 $1.99N/A (N/A)0 .. 20,0000%00:00 (00:00)
175 Gun Metal Jan 16, 2014 $2.99N/A (N/A)200,000 .. 500,0000%00:00 (00:00)
176 Supreme Ruler 2020 Gold Jul 9, 2009 $9.99N/A (N/A/65%)50,000 .. 100,0000%00:00 (00:00)
177 Zeno Clash 2 Apr 30, 2013 $14.9944% (80%)200,000 .. 500,0000%00:00 (00:00)
178 Perimeter Apr 3, 2014 $3.99N/A (N/A/77%)50,000 .. 100,0001.11%01:49 (00:36)
179 Legends of Callasia Jun 10, 2016 FreeN/A (N/A)50,000 .. 100,0000%00:00 (00:00)
180 Umihara Kawase Shun: Steam Edition Nov 24, 2015 $11.99N/A (N/A)0 .. 20,0000%00:00 (00:00)
181 Making History: The Calm & the Storm Mar 13, 2007 $4.99N/A (N/A/70%)50,000 .. 100,0002.33%00:59 (00:19)
182 Gatling Gears Aug 30, 2011 $9.9944% (80%)50,000 .. 100,0000%00:00 (00:00)
183 Ninjahtic Jul 6, 2015 $1.99N/A (N/A)0 .. 20,0000%00:00 (00:00)
184 Run Rabbit Run Mar 31, 2016 $3.99N/A (N/A)0 .. 20,0000%00:00 (00:00)
185 Anomaly Warzone Earth Mobile Campaign Nov 6, 2013 $4.9944% (80%)100,000 .. 200,0000%00:00 (00:00)
186 Interplanetary May 12, 2015 N/A44% (80%)100,000 .. 200,0001.89%02:11 (00:43)
187 Bloodsports.TV Mar 30, 2015 $9.9944% (80%/69%)50,000 .. 100,0000%00:00 (00:00)
188 Tiki Man Jun 5, 2015 $0.99N/A (N/A)20,000 .. 50,0000%00:00 (00:00)
189 Age of Gladiators Feb 25, 2016 $9.9944% (80%)20,000 .. 50,0002.94%01:10 (00:23)
190 Graviteam Tactics: Operation Star Feb 11, 2014 $29.99N/A (N/A)20,000 .. 50,0000%00:00 (00:00)
191 Monday Night Combat Jan 24, 2011 $4.9944% (80%/82%)200,000 .. 500,0000%00:00 (00:00)
192 ROD: Revolt Of Defense Aug 12, 2016 $0.99N/A (N/A)20,000 .. 50,0000%00:00 (00:00)
193 Fate of the World Feb 28, 2011 $9.99N/A (N/A/70%)50,000 .. 100,0000%00:00 (00:00)
194 TASTEE: Lethal Tactics May 10, 2016 $14.99N/A (N/A)20,000 .. 50,0000%00:00 (00:00)
195 Ironcast Mar 26, 2015 $14.9942% (79%/75%)20,000 .. 50,0000%00:00 (00:00)
196 Klang Sep 22, 2016 $14.99N/A (N/A/71%)0 .. 20,0000%00:00 (00:00)
197 Fantasy Wars Aug 6, 2010 $4.99N/A (N/A/67%)50,000 .. 100,0001.64%06:22 (02:07)
198 Fortified Feb 3, 2016 $14.9942% (79%)0 .. 20,0000%00:00 (00:00)
199 David. Feb 16, 2015 $1.9942% (79%)50,000 .. 100,0000%00:00 (00:00)
200 Star Realms Mar 8, 2016 Free42% (79%)100,000 .. 200,0000%00:00 (00:00)
201 Zombie Party Jun 10, 2016 $9.9942% (79%)100,000 .. 200,00023.08%04:48 (03:38)
202 Protoshift Jan 15, 2016 $0.99N/A (N/A)0 .. 20,0000%00:00 (00:00)
203 Demolition Inc. Sep 19, 2011 $5.99N/A (N/A)50,000 .. 100,0000%00:00 (00:00)
204 Cultures - 8th Wonder of the World Mar 26, 2015 $0.49N/A (N/A)50,000 .. 100,0001.75%00:01 (00:00)
205 Nuclear Dawn Sep 26, 2011 $9.9942% (79%/71%)200,000 .. 500,0000.56%01:30 (00:30)
206 Caster Mar 19, 2009 $1.99N/A (N/A)200,000 .. 500,0000%00:00 (00:00)
207 Star Wolves 3: Civil War Mar 2, 2010 $4.9942% (79%)100,000 .. 200,0000%00:00 (00:00)
208 Starscape Nov 3, 2008 $7.9942% (79%)0 .. 20,0000%00:00 (00:00)
209 Locoland May 28, 2015 $4.99N/A (N/A)0 .. 20,0000%00:00 (00:00)
210 7,62 High Calibre Apr 30, 2014 $4.99N/A (N/A)50,000 .. 100,0000%00:00 (00:00)
211 Vietnam 65 Mar 5, 2015 $9.99N/A (N/A/81%)20,000 .. 50,0000%00:00 (00:00)
212 Conquest of Elysium 3 Oct 24, 2012 $9.9942% (79%)20,000 .. 50,0000%00:00 (00:00)
213 Hail to the King: Deathbat Oct 30, 2014 $5.9942% (79%)0 .. 20,0000%00:00 (00:00)
214 Strike Suit Zero: Director's Cut Apr 8, 2014 $19.99N/A (N/A)20,000 .. 50,0000%00:00 (00:00)
215 Advent Rising Sep 14, 2006 $9.9940% (78%/70%)50,000 .. 100,0000%00:00 (00:00)
216 Battle Mages: Sign of Darkness Jul 24, 2014 $4.99N/A (N/A)0 .. 20,0000%00:00 (00:00)
217 A Blind Legend Apr 7, 2016 $6.99N/A (N/A)0 .. 20,0000%00:00 (00:00)
218 Hordelicious Jul 10, 2015 $3.9940% (78%)20,000 .. 50,0000%00:00 (00:00)
219 The Legend of Dark Witch Dec 1, 2015 $4.99N/A (N/A)20,000 .. 50,0000%00:00 (00:00)
220 Heroes of Might & Magic V: Hammers of Fate Oct 10, 2008 $9.99N/A (N/A/66%)100,000 .. 200,0000%00:00 (00:00)
221 Dead Rising 2: Off the Record Oct 11, 2011 $19.9940% (78%/66%)500,000 .. 1,000,0001.13%02:20 (01:33)
222 TRON RUN/r Feb 16, 2016 $19.9940% (78%)0 .. 20,0000%00:00 (00:00)
223 Othello Mar 19, 2015 $9.99N/A (N/A)0 .. 20,0000%00:00 (00:00)
224 Envoy Mar 17, 2016 $0.49N/A (N/A)50,000 .. 100,0000%00:00 (00:00)
225 Aeon Command Jul 3, 2014 $2.99N/A (N/A)20,000 .. 50,0000%00:00 (00:00)
226 Mold on Pizza Sep 25, 2015 $5.99N/A (N/A)0 .. 20,0000%00:00 (00:00)
227 Making History II: The War of the World Aug 27, 2010 $14.99N/A (N/A/38%)20,000 .. 50,0000%00:00 (00:00)
228 Dangerous Waters Feb 7, 2006 $14.99N/A (N/A/82%)50,000 .. 100,0000%00:00 (00:00)
229 Pharaonic Apr 28, 2016 $14.99N/A (N/A)20,000 .. 50,0000%00:00 (00:00)
230 Deadly 30 Jan 8, 2014 $4.9940% (78%)100,000 .. 200,0001.27%00:34 (00:20)
231 Curse of the Crescent Isle DX Aug 21, 2015 $4.99N/A (N/A)0 .. 20,0000%00:00 (00:00)
232 McDROID Sep 5, 2014 $9.99N/A (N/A)0 .. 20,0000%00:00 (00:00)
233 Painkiller Hell & Damnation Oct 31, 2012 $19.99N/A (N/A/64%)500,000 .. 1,000,0002.3%02:10 (02:50)
234 The Political Machine 2016 Feb 4, 2016 $9.9938% (77%)100,000 .. 200,0000%00:00 (00:00)
235 Mysterium: A Psychic Clue Game Jan 12, 2017 $9.9938% (77%)50,000 .. 100,0000%00:00 (00:00)
236 Riddled Corpses Jun 2, 2015 $7.99N/A (N/A)20,000 .. 50,0000%00:00 (00:00)
237 Tank Destroyer Mar 9, 2017 $0.538% (77%)20,000 .. 50,0003.85%04:14 (02:49)
238 Spirits of Xanadu Mar 26, 2015 $4.99N/A (N/A)20,000 .. 50,0002.44%02:56 (00:58)
239 Rocketbirds 2 Evolution Jan 26, 2017 $9.99N/A (N/A)0 .. 20,0000%00:00 (00:00)
240 Bet On Soldier Dec 5, 2014 $7.9938% (77%)20,000 .. 50,0000%00:00 (00:00)
241 PAC-MAN and the Ghostly Adventures Oct 29, 2013 $19.99N/A (N/A)0 .. 20,0000%00:00 (00:00)
242 A.R.E.S. Extinction Agenda EX Oct 3, 2014 $9.99N/A (N/A)0 .. 20,0003.33%00:49 (00:16)
243 King of Dragon Pass Jul 28, 2015 $11.9938% (77%)50,000 .. 100,0001.18%02:05 (00:41)
244 Warlords Battlecry III Jan 22, 2016 $9.9938% (77%/73%)0 .. 20,00016.67%01:40 (00:33)
245 Civil War II Jul 3, 2014 $39.99N/A (N/A)0 .. 20,0000%00:00 (00:00)
246 Velocity 2X Aug 19, 2015 $19.99N/A (N/A)50,000 .. 100,0000%00:00 (00:00)
247 Z Jul 4, 2014 $6.9936% (76%)100,000 .. 200,0000.64%02:53 (00:57)
248 Battle Time Sep 29, 2016 $0.99N/A (N/A)20,000 .. 50,0000%00:00 (00:00)
249 BloodRayne Sep 14, 2006 $9.99N/A (N/A/65%)50,000 .. 100,0000%00:00 (00:00)
250 Heroes of Arca Feb 16, 2017 Free36% (76%)0 .. 20,0000%00:00 (00:00)
251 Livelock Aug 30, 2016 $9.9936% (76%/73%)20,000 .. 50,0006.06%00:01 (00:00)
252 Cashtronauts Aug 31, 2016 $2.99N/A (N/A)0 .. 20,0000%00:00 (00:00)
253 Corgi Warlock Dec 3, 2015 $1.99N/A (N/A)20,000 .. 50,0000%00:00 (00:00)
254 Monster Monpiece Mar 14, 2017 $19.9936% (76%)20,000 .. 50,0007.69%01:32 (01:01)
255 Rocket Knight May 11, 2010 $14.9936% (76%/63%)0 .. 20,0000%00:00 (00:00)
256 Extravaganza Rising Jul 21, 2016 $5.99N/A (N/A)20,000 .. 50,0000%00:00 (00:00)
257 Zombie Killtime Aug 4, 2015 $1.99N/A (N/A)0 .. 20,0000%00:00 (00:00)
258 Deadlings: Rotten Edition Nov 11, 2014 $3.99N/A (N/A)50,000 .. 100,0000%00:00 (00:00)
259 WARSHIFT Oct 12, 2016 $12.9936% (76%)20,000 .. 50,0000%00:00 (00:00)
260 Olympia Rising Jul 23, 2015 $4.99N/A (N/A)20,000 .. 50,0000%00:00 (00:00)
261 Chaser Jul 16, 2010 $4.9936% (76%/66%)100,000 .. 200,0000%00:00 (00:00)
262 FIVE: Champions of Canaan Sep 27, 2016 $3.99N/A (N/A)0 .. 20,0000%00:00 (00:00)
263 Perimeter: Emperor's Testament May 22, 2014 $3.99N/A (N/A/72%)20,000 .. 50,0000%00:00 (00:00)
264 Auralux: Constellations Jun 1, 2016 $9.99N/A (N/A)0 .. 20,0000%00:00 (00:00)
265 Hot Tin Roof: The Cat That Wore A Fedora Feb 20, 2015 $14.99N/A (N/A/66%)100,000 .. 200,0000%00:00 (00:00)
266 Albino Lullaby: Episode 1 Sep 14, 2015 $9.9934% (75%)20,000 .. 50,0000%00:00 (00:00)
267 CivCity: Rome Apr 6, 2007 $9.99N/A (N/A/67%)50,000 .. 100,0000%00:00 (00:00)
268 Zoo Empire Sep 3, 2015 $6.99N/A (N/A/59%)0 .. 20,0000%00:00 (00:00)
269 Pick a Hero Jun 9, 2016 $0.99N/A (N/A)0 .. 20,0000%00:00 (00:00)
270 Fist Puncher Jun 21, 2013 $9.99N/A (N/A/73%)20,000 .. 50,0000%00:00 (00:00)
271 Ubersoldier II Mar 25, 2014 $9.99N/A (N/A/62%)20,000 .. 50,0000%00:00 (00:00)
272 Smell Of Death Jul 4, 2016 $9.99N/A (N/A)0 .. 20,0000%00:00 (00:00)
273 Onechanbara Z2: Chaos Jun 2, 2016 $39.9934% (75%)0 .. 20,0000%00:00 (00:00)
274 Supreme Ruler Ultimate Oct 17, 2014 $19.9934% (75%)20,000 .. 50,0000%00:00 (00:00)
275 BossConstructor Oct 24, 2016 $14.9934% (75%)0 .. 20,0000%00:00 (00:00)
276 Master Reboot Oct 29, 2013 $14.9934% (75%/59%)50,000 .. 100,0000%00:00 (00:00)
277 Victory At Sea Aug 8, 2014 $7.4934% (75%)20,000 .. 50,0000%00:00 (00:00)
278 Platformines Mar 28, 2014 $9.9934% (75%/67%)100,000 .. 200,0000%00:00 (00:00)
279 The Superfluous May 19, 2017 $4.99N/A (N/A)0 .. 20,0000%00:00 (00:00)
280 Vampire of the Sands Jul 17, 2015 $4.99N/A (N/A)20,000 .. 50,0001.85%05:31 (01:50)
281 Auro: A Monster-Bumping Adventure Apr 13, 2016 $6.99N/A (N/A)0 .. 20,0000%00:00 (00:00)
282 Hunting Unlimited 2008 Jan 29, 2008 $9.99N/A (N/A)20,000 .. 50,0000%00:00 (00:00)
283 Codex of Victory Mar 16, 2017 $14.99N/A (N/A)0 .. 20,0000%00:00 (00:00)
284 Divinity: Dragon Commander Aug 6, 2013 $39.9932% (74%)200,000 .. 500,0000%00:00 (00:00)
285 Bubsy Two-Fur Dec 17, 2015 $4.99N/A (N/A)0 .. 20,0000%00:00 (00:00)
286 LEGO Indiana Jones 2: The Adventure Continues Feb 18, 2010 $19.99N/A (N/A/66%)50,000 .. 100,0000%00:00 (00:00)
287 Sid Meiers Ace Patrol Aug 27, 2013 $4.9932% (74%)500,000 .. 1,000,0000%00:00 (00:00)
288 Banzai Escape Feb 29, 2016 $5.99N/A (N/A)0 .. 20,0000%00:00 (00:00)
289 FEIST Jul 23, 2015 $9.99N/A (N/A)20,000 .. 50,0000%00:00 (00:00)
290 Making History: The Great War Jan 29, 2015 $29.99N/A (N/A)20,000 .. 50,0000%00:00 (00:00)
291 Phoning Home Feb 7, 2017 $4.9932% (74%/61%)20,000 .. 50,0000%00:00 (00:00)
292 Distant Worlds: Universe May 23, 2014 $59.9932% (74%/81%)50,000 .. 100,0000%00:00 (00:00)
293 VRZ: Torment May 18, 2017 $4.99N/A (N/A)0 .. 20,0000%00:00 (00:00)
294 Viktor Jun 13, 2014 $7.99N/A (N/A)20,000 .. 50,0000%00:00 (00:00)
295 Pike and Shot : Campaigns Aug 13, 2015 $39.9931% (73%)0 .. 20,0000%00:00 (00:00)
296 TableTop Soccer Apr 22, 2016 $0.9931% (73%)0 .. 20,0000%00:00 (00:00)
297 Rise & Shine Jan 13, 2017 $14.99N/A (N/A)50,000 .. 100,0000%00:00 (00:00)
298 Disney Planes Oct 6, 2014 $19.99N/A (N/A)0 .. 20,0000%00:00 (00:00)
299 Warp Mar 21, 2012 $9.99N/A (N/A)20,000 .. 50,0000%00:00 (00:00)
300 Fatal Fight Jun 10, 2016 $2.99N/A (N/A)0 .. 20,0000%00:00 (00:00)
301 Death by Game Show Jan 22, 2016 $9.99N/A (N/A)20,000 .. 50,0001.92%03:28 (01:09)
302 Rex Rocket Aug 5, 2014 $4.99N/A (N/A)20,000 .. 50,0000%00:00 (00:00)
303 King Arthur - The Role-playing Wargame Nov 24, 2009 $9.9931% (73%)200,000 .. 500,0000%00:00 (00:00)
304 Cast of the Seven Godsends - Redux Jul 20, 2015 $9.9931% (73%)20,000 .. 50,0000%00:00 (00:00)
305 The Aquatic Adventure of the Last Human Jan 19, 2016 $9.9931% (73%/76%)0 .. 20,0000%00:00 (00:00)
306 Battle Fleet 2 Nov 20, 2014 $14.99N/A (N/A)20,000 .. 50,0000%00:00 (00:00)
307 Cross of the Dutchman Sep 10, 2015 $8.99N/A (N/A/59%)20,000 .. 50,0000%00:00 (00:00)
308 Retrovirus Jan 31, 2013 $9.9929% (72%/70%)20,000 .. 50,0000%00:00 (00:00)
309 Gold Rush! Anniversary Nov 7, 2014 $5.99N/A (N/A)100,000 .. 200,0001.34%01:12 (00:48)
310 Cuban Missile Crisis Mar 25, 2015 $4.99N/A (N/A)20,000 .. 50,0000%00:00 (00:00)
311 Wyv and Keep: The Temple of the Lost Idol Aug 8, 2014 $14.99N/A (N/A)20,000 .. 50,0000%00:00 (00:00)
312 There Came an Echo Feb 24, 2015 $14.9929% (72%/58%)20,000 .. 50,0000%00:00 (00:00)
313 Lux Delux May 1, 2015 $9.99N/A (N/A)20,000 .. 50,0000%00:00 (00:00)
314 Airship Dragoon Aug 26, 2014 $9.99N/A (N/A)0 .. 20,0000%00:00 (00:00)
315 Lost Planet: Extreme Condition Jun 26, 2007 $14.9929% (72%/66%)200,000 .. 500,0001.85%05:45 (01:55)
316 rooMaze Mar 3, 2017 $1.99N/A (N/A)20,000 .. 50,0000%00:00 (00:00)
317 GEARGUNS Tank offensive Sep 20, 2016 $1.5129% (72%)20,000 .. 50,0001.41%01:32 (00:30)
318 Alarameth TD Jun 23, 2015 $4.99N/A (N/A)0 .. 20,0000%00:00 (00:00)
319 Civil War: Battle of Petersburg Feb 8, 2017 $0.99N/A (N/A)20,000 .. 50,0000%00:00 (00:00)
320 Deadnaut Dec 8, 2014 $9.99N/A (N/A)20,000 .. 50,0000%00:00 (00:00)
321 A.R.E.S.: Extinction Agenda Jan 19, 2011 $4.99N/A (N/A/68%)100,000 .. 200,0000%00:00 (00:00)
322 Smithy Jun 3, 2016 $3.99N/A (N/A)50,000 .. 100,0001.54%03:13 (02:08)
323 Jagged Alliance 2 - Wildfire Nov 16, 2012 $6.9928% (71%)200,000 .. 500,0003.45%06:25 (07:05)
324 Panzer Tactics HD May 22, 2014 $9.9928% (71%/69%)20,000 .. 50,0000%00:00 (00:00)
325 Space Colony: Steam Edition Apr 30, 2015 $14.9928% (71%/74%)20,000 .. 50,0000%00:00 (00:00)
326 Tom Clancy's EndWar Feb 25, 2009 $9.9928% (71%/68%)50,000 .. 100,0000%00:00 (00:00)
327 The Last Federation Apr 18, 2014 $19.99N/A (N/A/72%)50,000 .. 100,0000%00:00 (00:00)
328 Zombie Camp Jul 31, 2016 $1.99N/A (N/A)0 .. 20,0000%00:00 (00:00)
329 Pongo May 11, 2015 $0.9928% (71%)50,000 .. 100,0000%00:00 (00:00)
330 REDCON Apr 22, 2016 $5.9928% (71%)20,000 .. 50,0000%00:00 (00:00)
331 Little King's Story Aug 5, 2016 $19.9926% (70%/62%)0 .. 20,0000%00:00 (00:00)
332 Elven Legacy Apr 7, 2009 $4.9926% (70%/71%)50,000 .. 100,0000%00:00 (00:00)
333 Elliot Quest Nov 10, 2014 $9.9926% (70%)20,000 .. 50,0000%00:00 (00:00)
334 BitMaster Oct 12, 2016 $2.99N/A (N/A)100,000 .. 200,0000%00:00 (00:00)
335 Incandescent Jun 30, 2015 $0.49N/A (N/A)20,000 .. 50,0000.95%00:03 (00:01)
336 Collapse Apr 11, 2014 $19.99N/A (N/A)50,000 .. 100,0000%00:00 (00:00)
337 Sol 0: Mars Colonization Jan 15, 2016 $3.99N/A (N/A)20,000 .. 50,0000%00:00 (00:00)
338 Zombie City Defense 2 Aug 19, 2016 $9.9926% (70%)0 .. 20,0000%00:00 (00:00)
339 Crazy Forest Jul 6, 2016 $4.99N/A (N/A)100,000 .. 200,0000%00:00 (00:00)
340 Heaven Forest NIGHTS Mar 14, 2017 $0.69N/A (N/A)100,000 .. 200,0000.82%01:23 (00:55)
341 The Living Dungeon Nov 2, 2015 $12.99N/A (N/A)0 .. 20,0000%00:00 (00:00)
342 Warrior Kings Apr 24, 2014 $9.99N/A (N/A/73%)0 .. 20,0000%00:00 (00:00)
343 ManaCollect Apr 17, 2015 $6.99N/A (N/A)0 .. 20,0000%00:00 (00:00)
344 Quick Slick Deadly Sep 21, 2015 $0.49N/A (N/A)20,000 .. 50,0000%00:00 (00:00)
345 Guns n Zombies Oct 30, 2014 $7.99N/A (N/A)100,000 .. 200,0000%00:00 (00:00)
346 The Nightmare Cooperative Jul 16, 2014 $4.99N/A (N/A)50,000 .. 100,0000%00:00 (00:00)
347 YAIBA: NINJA GAIDEN Z Mar 21, 2014 $29.99N/A (N/A/49%)20,000 .. 50,0000%00:00 (00:00)
348 Sorcerer King Jul 16, 2015 $9.9923% (68%/75%)20,000 .. 50,0000%00:00 (00:00)
349 Revolution Under Siege Gold Jul 2, 2015 $24.99N/A (N/A)0 .. 20,0000%00:00 (00:00)
350 Pigmentone Jul 8, 2016 $1.99N/A (N/A)0 .. 20,00025%02:00 (02:16)
351 Strategy & Tactics: Wargame Collection Apr 22, 2016 $9.99N/A (N/A)20,000 .. 50,00013.33%04:15 (04:04)
352 FIVE: Guardians of David Nov 24, 2015 $9.99N/A (N/A/66%)20,000 .. 50,0000%00:00 (00:00)
353 The Hive Aug 25, 2016 $9.99N/A (N/A)20,000 .. 50,0000%00:00 (00:00)
354 Theatre of War 2: Africa 1943 Jul 9, 2010 $4.99N/A (N/A/63%)100,000 .. 200,0000%00:00 (00:00)
355 Fair Strike Apr 23, 2015 $3.99N/A (N/A/56%)0 .. 20,0000%00:00 (00:00)
356 Stonerid Aug 15, 2014 $4.9923% (68%)50,000 .. 100,0000%00:00 (00:00)
357 Toren May 11, 2015 $9.9923% (68%/57%)50,000 .. 100,0000%00:00 (00:00)
358 Brigade E5: New Jagged Union Apr 30, 2014 $3.99N/A (N/A/41%)20,000 .. 50,0000%00:00 (00:00)
359 RISK: Factions Mar 8, 2011 $9.9923% (68%/77%)50,000 .. 100,0000%00:00 (00:00)
360 Kill The Plumber Dec 31, 2015 $4.9923% (68%)0 .. 20,0000%00:00 (00:00)
361 Scourge: Outbreak Apr 2, 2014 $7.9922% (67%)100,000 .. 200,0000%00:00 (00:00)
362 Zafehouse: Diaries Sep 6, 2013 $1.99N/A (N/A)50,000 .. 100,0000%00:00 (00:00)
363 Men of War: Condemned Heroes Apr 12, 2012 $7.99N/A (N/A/57%)100,000 .. 200,0000%00:00 (00:00)
364 Alea Jacta Est Nov 4, 2014 $24.99N/A (N/A)0 .. 20,0000%00:00 (00:00)
365 Chainsaw Warrior Oct 7, 2013 $4.9922% (67%)100,000 .. 200,0001.28%00:30 (00:10)
366 Toy Odyssey: The Lost and Found Sep 20, 2016 $14.99N/A (N/A/66%)100,000 .. 200,0000%00:00 (00:00)
367 Nomad Fleet Apr 19, 2016 $9.99N/A (N/A)0 .. 20,00033.33%02:48 (03:12)
368 Sengoku Sep 15, 2011 $9.9922% (67%/70%)100,000 .. 200,0000%00:00 (00:00)
369 Survivor Squad: Gauntlets Nov 16, 2015 $4.99N/A (N/A)20,000 .. 50,0000%00:00 (00:00)
370 Bedlam Oct 13, 2015 $12.9921% (66%/54%)100,000 .. 200,0001.1%01:00 (00:20)
371 Mad Combat Marines Jul 13, 2016 $0.99N/A (N/A)20,000 .. 50,0000%00:00 (00:00)
372 Infinity Runner Jul 14, 2014 $6.99N/A (N/A/56%)0 .. 20,0000%00:00 (00:00)
373 Disney Pirates of the Caribbean: At Worlds End Oct 6, 2014 $19.99N/A (N/A)0 .. 20,0000%00:00 (00:00)
374 7th Legion Oct 23, 2014 $6.99N/A (N/A)0 .. 20,0000%00:00 (00:00)
375 Platypus II Aug 15, 2014 $6.9921% (66%)200,000 .. 500,0000.32%00:01 (00:00)
376 Commander Cool 2 Dec 17, 2015 $2.99N/A (N/A)20,000 .. 50,0000%00:00 (00:00)
377 Marauder Apr 4, 2014 $9.99N/A (N/A)20,000 .. 50,0000%00:00 (00:00)
378 UnSummoning: the Spectral Horde Dec 21, 2015 $3.99N/A (N/A)0 .. 20,0000%00:00 (00:00)
379 8-Bit Commando Jun 2, 2014 $2.99N/A (N/A)50,000 .. 100,0000%00:00 (00:00)
380 Assassins Creed Chronicles: India Jan 12, 2016 $9.9921% (66%)20,000 .. 50,0000%00:00 (00:00)
381 1849 May 8, 2014 $14.99N/A (N/A)20,000 .. 50,0000%00:00 (00:00)
382 Royal Defense Nov 10, 2014 $4.9921% (66%)50,000 .. 100,0002.19%04:51 (03:41)
383 Devil's Dare Oct 21, 2014 $12.9920% (65%)20,000 .. 50,0000%00:00 (00:00)
384 Hunters Of The Dead Sep 4, 2014 $4.9920% (65%)20,000 .. 50,0000%00:00 (00:00)
385 Kaiju-A-GoGo Apr 23, 2015 $9.9920% (65%)20,000 .. 50,0000%00:00 (00:00)
386 March of the Eagles Feb 18, 2013 $4.9920% (65%/71%)50,000 .. 100,0000%00:00 (00:00)
387 Zoo Rampage Jul 9, 2014 $3.9920% (65%)0 .. 20,0000%00:00 (00:00)
388 Malebolgia May 6, 2015 $12.99N/A (N/A)0 .. 20,0000%00:00 (00:00)
389 Frozen Synapse Prime Nov 14, 2014 $24.99N/A (N/A/83%)100,000 .. 200,0000%00:00 (00:00)
390 Fallen Enchantress Oct 23, 2012 $9.9920% (65%/78%)100,000 .. 200,0000%00:00 (00:00)
391 My Super Tower 2 Jan 27, 2017 $0.99N/A (N/A)0 .. 20,0000%00:00 (00:00)
392 Theatre of War 2: Kursk 1943 Jul 9, 2010 $4.99N/A (N/A)50,000 .. 100,0000%00:00 (00:00)
393 The Seven Years War (1756-1763) Oct 30, 2015 $7.9920% (65%)0 .. 20,0000%00:00 (00:00)
394 Ground Breakers Jun 15, 2016 $4.99N/A (N/A)0 .. 20,0000%00:00 (00:00)
395 Spirit of War Mar 12, 2015 $9.99N/A (N/A)20,000 .. 50,0000%00:00 (00:00)
396 Zombie Tycoon 2: Brainhov's Revenge Dec 9, 2013 $4.99N/A (N/A)50,000 .. 100,0000%00:00 (00:00)
397 Revenge of Roger Rouge Apr 22, 2016 $0.99N/A (N/A)20,000 .. 50,0003.65%04:20 (04:33)
398 Battle Worlds: Kronos Nov 4, 2013 $19.99N/A (N/A/71%)20,000 .. 50,0000%00:00 (00:00)
399 Rise: Battle Lines Nov 17, 2015 $5.99N/A (N/A)0 .. 20,0000%00:00 (00:00)
400 Jagged Alliance: Crossfire Aug 24, 2012 $14.99N/A (N/A/63%)100,000 .. 200,0000%00:00 (00:00)
401 Warlock 2: The Exiled Apr 10, 2014 $19.99N/A (N/A/73%)50,000 .. 100,0000%00:00 (00:00)
402 Sorcerer King: Rivals Sep 22, 2016 $14.9919% (64%)50,000 .. 100,0000%00:00 (00:00)
403 SPACECOM Sep 17, 2014 $9.9919% (64%/68%)100,000 .. 200,0000%00:00 (00:00)
404 Beasts Battle Jun 15, 2016 $1.99N/A (N/A)0 .. 20,0000%00:00 (00:00)
405 Link Apr 22, 2016 $4.99N/A (N/A)0 .. 20,0000%00:00 (00:00)
406 Urban Pirate Jun 17, 2016 $6.99N/A (N/A)0 .. 20,0003.57%04:01 (01:20)
407 A Game of Dwarves Oct 23, 2012 $9.99N/A (N/A/60%)100,000 .. 200,0000%00:00 (00:00)
408 Port Royale 2 Jun 16, 2009 $4.99N/A (N/A/75%)50,000 .. 100,0004.17%11:48 (03:56)
409 Bombshell Jan 29, 2016 $34.9918% (63%)0 .. 20,0000%00:00 (00:00)
410 Desert Ashes Nov 10, 2014 $4.99N/A (N/A)20,000 .. 50,0000%00:00 (00:00)
411 Pixel Boy and the Ever Expanding Dungeon May 30, 2014 $0.99N/A (N/A)20,000 .. 50,0000%00:00 (00:00)
412 Will Fight for Food: Super Actual Sellout: Game of the Hour Apr 22, 2015 $5.99N/A (N/A)20,000 .. 50,0000%00:00 (00:00)
413 BattleLore: Command Mar 31, 2015 $6.9918% (63%)0 .. 20,0000%00:00 (00:00)
414 Disney Epic Mickey 2: The Power of Two Oct 6, 2014 $19.99N/A (N/A)20,000 .. 50,0000%00:00 (00:00)
415 War, the Game Jan 12, 2015 $6.99N/A (N/A/65%)20,000 .. 50,0000%00:00 (00:00)
416 The Few Jun 18, 2014 $7.9917% (62%)20,000 .. 50,0000%00:00 (00:00)
417 Freight Tycoon Inc. Apr 3, 2014 $4.9917% (62%)20,000 .. 50,0006.25%09:46 (03:15)
418 4089: Ghost Within Jan 9, 2015 $5.99N/A (N/A)0 .. 20,0000%00:00 (00:00)
419 Hyperspace Pinball Sep 30, 2015 $2.99N/A (N/A)0 .. 20,0000%00:00 (00:00)
420 Supreme Ruler: Cold War Jul 29, 2011 $9.99N/A (N/A/63%)20,000 .. 50,0000%00:00 (00:00)
421 Battleplan: American Civil War Jul 4, 2014 $9.99N/A (N/A/66%)100,000 .. 200,0000.43%00:17 (00:05)
422 E.T. Armies Mar 3, 2016 $14.99N/A (N/A/54%)20,000 .. 50,0000%00:00 (00:00)
423 Call of Duty: Black Ops - Mac Edition Sep 27, 2012 $19.9916% (61%)50,000 .. 100,0000%00:00 (00:00)
424 Men of War: Vietnam Sep 8, 2011 $7.99N/A (N/A/68%)200,000 .. 500,0000%00:00 (00:00)
425 Spice Road Apr 24, 2014 $19.99N/A (N/A)0 .. 20,0000%00:00 (00:00)
426 To End All Wars Aug 29, 2014 $39.99N/A (N/A/71%)0 .. 20,0000%00:00 (00:00)
427 Quarantine May 24, 2017 $9.9916% (61%)0 .. 20,0000%00:00 (00:00)
428 Flashback Oct 1, 2013 $9.9916% (61%)20,000 .. 50,0000%00:00 (00:00)
429 Legions of Steel Jul 16, 2015 $19.99N/A (N/A/64%)0 .. 20,0000%00:00 (00:00)
430 Stay Dead Evolution Feb 4, 2015 $5.99N/A (N/A)20,000 .. 50,0000%00:00 (00:00)
431 Grim Seventh Jan 20, 2017 FreeN/A (N/A)0 .. 20,0000%00:00 (00:00)
432 Patrician IV - Steam Special Edition Sep 17, 2010 $14.99N/A (N/A/66%)100,000 .. 200,0000%00:00 (00:00)
433 Code of Princess Apr 14, 2016 $14.99N/A (N/A/53%)0 .. 20,0000%00:00 (00:00)
434 Overruled! Sep 15, 2015 $12.99N/A (N/A)20,000 .. 50,0000%00:00 (00:00)
435 Skyshine's BEDLAM Sep 16, 2015 $19.9915% (60%/67%)20,000 .. 50,0000%00:00 (00:00)
436 Woolfe - The Red Hood Diaries Mar 17, 2015 $9.99N/A (N/A/55%)50,000 .. 100,0000%00:00 (00:00)
437 Close Combat - Panthers in the Fog May 14, 2015 $39.9915% (60%)0 .. 20,0000%00:00 (00:00)
438 Goblin Defenders: Steeln Wood Nov 23, 2015 $2.99N/A (N/A)20,000 .. 50,0000%00:00 (00:00)
439 7 Grand Steps: What Ancients Begat Jun 7, 2013 $19.9915% (60%)100,000 .. 200,0000%00:00 (00:00)
440 Disciples III - Renaissance Steam Special Edition Jul 16, 2010 $14.99N/A (N/A/56%)200,000 .. 500,0000%00:00 (00:00)
441 Purgatory Jun 22, 2016 $0.99N/A (N/A)200,000 .. 500,0001.6%03:58 (04:39)
442 Defend Your Crypt Jul 21, 2016 $2.99N/A (N/A)0 .. 20,0000%00:00 (00:00)
443 DreamBreak Jul 21, 2016 $6.99N/A (N/A/46%)0 .. 20,0000%00:00 (00:00)
444 Antisquad May 22, 2014 $5.99N/A (N/A)50,000 .. 100,0000%00:00 (00:00)
445 Ceres Oct 16, 2015 $19.99N/A (N/A/74%)0 .. 20,0000%00:00 (00:00)
446 Merchants of Kaidan Nov 10, 2014 $14.9914% (59%)100,000 .. 200,0000%00:00 (00:00)
447 Prospekt Feb 18, 2016 $9.99N/A (N/A)20,000 .. 50,0000%00:00 (00:00)
448 Super Helmets on Fire DX Ultra Edition Plus Alpha Feb 15, 2016 $0.99N/A (N/A)0 .. 20,0000%00:00 (00:00)
449 Ninjahtic Mind Tricks Jul 16, 2015 $1.99N/A (N/A)0 .. 20,0000%00:00 (00:00)
450 Prophour23 Oct 22, 2014 $9.99N/A (N/A)20,000 .. 50,0000%00:00 (00:00)
451 Colonial Conquest Jul 28, 2015 $9.9913% (58%)0 .. 20,0000%00:00 (00:00)
452 Woodle Tree 2: Worlds Sep 16, 2016 $3.9913% (58%)20,000 .. 50,0000%00:00 (00:00)
453 Unearthed: Trail of Ibn Battuta - Episode 1 - Gold Edition Jan 3, 2014 $4.9913% (58%)20,000 .. 50,0000%00:00 (00:00)
454 Adventure World Aug 2, 2016 $4.99N/A (N/A)0 .. 20,0000%00:00 (00:00)
455 Cemetery Warrior 3 Feb 3, 2017 $0.9913% (58%)50,000 .. 100,0000%00:00 (00:00)
456 NOBUNAGA'S AMBITION: Sphere of Influence - Ascension / Mar 23, 2016 $59.9913% (58%)50,000 .. 100,0000%00:00 (00:00)
457 Armada 2526 Gold Edition Feb 28, 2013 $19.9913% (58%/66%)50,000 .. 100,0000%00:00 (00:00)
458 Check vs Mate Aug 16, 2012 $19.9913% (58%/69%)0 .. 20,0000%00:00 (00:00)
459 Sir! I'd Like To Report A Bug! Oct 19, 2015 $1.99N/A (N/A)0 .. 20,0000%00:00 (00:00)
460 Wanderlust Adventures Aug 10, 2015 $9.9913% (58%)20,000 .. 50,0000%00:00 (00:00)
461 VR Journey Dec 15, 2016 $0.5N/A (N/A)20,000 .. 50,0000%00:00 (00:00)
462 Heavy Fire: Afghanistan Aug 15, 2014 $2.99N/A (N/A)20,000 .. 50,0000%00:00 (00:00)
463 Assault on Arnhem Mar 11, 2016 $9.99N/A (N/A)0 .. 20,0000%00:00 (00:00)
464 Gates of Horizon Dec 18, 2014 $9.99N/A (N/A)0 .. 20,0006.25%02:10 (00:43)
465 Rise of Venice Sep 27, 2013 $19.9912% (57%/66%)50,000 .. 100,0002.94%00:14 (00:04)
466 Delve Deeper Sep 24, 2010 $4.9911% (56%)50,000 .. 100,0000%00:00 (00:00)
467 Defence to death May 11, 2017 $1.99N/A (N/A)50,000 .. 100,0000%00:00 (00:00)
468 Gnumz: Masters of Defense Dec 21, 2015 $4.99N/A (N/A)20,000 .. 50,0001.52%01:20 (00:39)
469 Armada 2526 Apr 8, 2011 $14.99N/A (N/A/66%)0 .. 20,0000%00:00 (00:00)
470 Horizon Feb 6, 2014 $29.9911% (56%)50,000 .. 100,0000%00:00 (00:00)
471 Abalone Apr 23, 2014 $4.99N/A (N/A)0 .. 20,0000%00:00 (00:00)
472 Pain Train Jan 11, 2017 $0.9911% (55%)20,000 .. 50,0000%00:00 (00:00)
473 Sovereignty: Crown of Kings Feb 2, 2017 $24.99N/A (N/A)0 .. 20,0000%00:00 (00:00)
474 BC Kings Jun 16, 2009 $4.99N/A (N/A)20,000 .. 50,0000%00:00 (00:00)
475 Nightside Aug 6, 2015 $9.9910% (54%)20,000 .. 50,0000%00:00 (00:00)
476 Wickland Feb 6, 2015 $0.99N/A (N/A)100,000 .. 200,0000%00:00 (00:00)
477 Tic-Toc-Tower Sep 28, 2015 $2.99N/A (N/A)0 .. 20,0000%00:00 (00:00)
478 The Settlers 7: Paths to a Kingdom: Deluxe Gold Edition Mar 10, 2011 $19.999% (53%/79%)100,000 .. 200,0000%00:00 (00:00)
479 Smugglers 5 Apr 11, 2014 $9.99N/A (N/A)20,000 .. 50,0000%00:00 (00:00)
480 Royal Bounty HD Aug 10, 2015 $2.999% (53%)0 .. 20,0000%00:00 (00:00)
481 The Stalin Subway Sep 19, 2014 $3.999% (53%)20,000 .. 50,0000%00:00 (00:00)
482 Urja Jan 9, 2015 $9.99N/A (N/A)20,000 .. 50,0000%00:00 (00:00)
483 Story Of the Survivor Feb 16, 2016 $4.99N/A (N/A)50,000 .. 100,0000.91%314:15 (104:45)
484 Aegis Oct 6, 2016 $2.99N/A (N/A)0 .. 20,0000%00:00 (00:00)
485 Crusaders: Thy Kingdom Come Oct 8, 2009 $9.99N/A (N/A)20,000 .. 50,0000%00:00 (00:00)
486 Marvel: Ultimate Alliance 2 Jul 26, 2016 $39.999% (52%)0 .. 20,00025%00:04 (00:02)
487 Scapeland Mar 31, 2016 $3.99N/A (N/A)0 .. 20,0000%00:00 (00:00)
488 The Campaign Series: Fall Weiss May 30, 2014 $14.99N/A (N/A)20,000 .. 50,0000%00:00 (00:00)
489 MDK2 HD Jul 30, 2012 $14.999% (52%/73%)0 .. 20,0000%00:00 (00:00)
490 Meridian: New World Sep 26, 2014 $6.999% (52%/43%)50,000 .. 100,0000%00:00 (00:00)
491 Biodrone Battle Jul 16, 2015 $1.999% (52%)100,000 .. 200,0000%00:00 (00:00)
492 Dusty Revenge:Co-Op Edition Feb 17, 2014 $5.09N/A (N/A)100,000 .. 200,0000%00:00 (00:00)
493 Guncraft Aug 9, 2013 $14.99N/A (N/A/73%)100,000 .. 200,0000%00:00 (00:00)
494 MinosMaze - The Minotaur's Labyrinth May 1, 2017 $4.99N/A (N/A)0 .. 20,0000%00:00 (00:00)
495 PeriAreion Feb 19, 2015 $5.99N/A (N/A)0 .. 20,0000%00:00 (00:00)
496 Z Steel Soldiers Aug 1, 2014 $12.99N/A (N/A)50,000 .. 100,0000%00:00 (00:00)
497 No Pineapple Left Behind Feb 18, 2016 $9.99N/A (N/A/59%)0 .. 20,0000%00:00 (00:00)
498 Toy Soldiers: War Chest Aug 12, 2015 $3.748% (50%/60%)0 .. 20,0000%00:00 (00:00)
499 Weather Lord: The Successor's Path May 7, 2015 $4.99N/A (N/A)0 .. 20,0000%00:00 (00:00)
500 Albedo: Eyes from Outer Space Apr 10, 2015 $14.99N/A (N/A/66%)50,000 .. 100,0000%00:00 (00:00)
501 Megamagic: Wizards of the Neon Age Apr 20, 2016 $9.99N/A (N/A/67%)20,000 .. 50,0000%00:00 (00:00)
502 HitBox Jan 30, 2017 Free8% (50%)0 .. 20,0000%00:00 (00:00)
503 Odd||Even Apr 6, 2016 $0.99N/A (N/A)20,000 .. 50,0000%00:00 (00:00)
504 Kidnapped Aug 4, 2015 $2.998% (50%)100,000 .. 200,0000%00:00 (00:00)
505 Aggression: Europe Under Fire Apr 9, 2014 $9.99N/A (N/A)0 .. 20,0000%00:00 (00:00)
506 Warhammer: Arcane Magic Mar 3, 2016 $3.997% (49%)0 .. 20,0000%00:00 (00:00)
507 Meridian: Squad 22 Aug 11, 2016 $14.99N/A (N/A)0 .. 20,0000%00:00 (00:00)
508 Star Traders: 4X Empires Dec 16, 2014 $9.99N/A (N/A)0 .. 20,0000%00:00 (00:00)
509 Synonymy Mar 5, 2015 $1.99N/A (N/A)0 .. 20,0000%00:00 (00:00)
510 Rubber and Lead Sep 4, 2015 $4.99N/A (N/A)20,000 .. 50,0000%00:00 (00:00)
511 Crossfire: Dungeons May 21, 2015 $3.99N/A (N/A)0 .. 20,0000%00:00 (00:00)
512 Chronostorm: Siberian Border Nov 20, 2015 $0.99N/A (N/A)0 .. 20,0000%00:00 (00:00)
513 Disposable Heroes Mar 22, 2016 $4.99N/A (N/A)0 .. 20,0000%00:00 (00:00)
514 Blasting Agent: Ultimate Edition Aug 17, 2016 $2.99N/A (N/A)0 .. 20,0000%00:00 (00:00)
515 Hero Generations Apr 10, 2015 $5.996% (47%)20,000 .. 50,0000%00:00 (00:00)
516 Hell Nov 13, 2014 $29.99N/A (N/A)0 .. 20,0000%00:00 (00:00)
517 Castle Werewolf 3D Feb 7, 2017 $2.99N/A (N/A)50,000 .. 100,00015.67%04:24 (04:35)
518 The Stalin Subway: Red Veil Oct 24, 2014 $2.99N/A (N/A)20,000 .. 50,0000%00:00 (00:00)
519 Commander: Conquest of the Americas Jul 30, 2010 $9.99N/A (N/A/68%)50,000 .. 100,0000%00:00 (00:00)
520 Magic Quest May 6, 2016 $1.99N/A (N/A)50,000 .. 100,0000%00:00 (00:00)
521 World War 2: Time of Wrath Jun 6, 2014 $4.99N/A (N/A)20,000 .. 50,0000%00:00 (00:00)
522 The Bluecoats: North vs South Feb 2, 2015 $4.995% (45%)20,000 .. 50,0000%00:00 (00:00)
523 Carrier Command: Gaea Mission Sep 28, 2012 $32.995% (45%/60%)200,000 .. 500,0000%00:00 (00:00)
524 Redemption: Saints And Sinners Nov 18, 2016 $0.99N/A (N/A)50,000 .. 100,0000%00:00 (00:00)
525 Impire Feb 14, 2013 $19.995% (44%/45%)100,000 .. 200,0000%00:00 (00:00)
526 Vendetta - Curse of Raven's Cry Nov 20, 2015 $29.99N/A (N/A)0 .. 20,00033.33%02:02 (01:21)
527 DUNGEONS - Steam Special Edition Feb 10, 2011 $9.995% (44%/65%)200,000 .. 500,0000%00:00 (00:00)
528 Skyward Collapse May 23, 2013 $4.995% (43%/64%)100,000 .. 200,0000%00:00 (00:00)
529 Pride of Nations Jun 7, 2011 $19.995% (43%/70%)20,000 .. 50,0000%00:00 (00:00)
530 Island Defense Jul 23, 2015 $1.99N/A (N/A)50,000 .. 100,0000%00:00 (00:00)
531 Sword of the Stars II: Enhanced Edition Nov 30, 2012 $19.994% (42%/65%)100,000 .. 200,0000%00:00 (00:00)
532 Nux Aug 15, 2014 $6.99N/A (N/A)200,000 .. 500,0000%00:00 (00:00)
533 Devils & Demons Oct 6, 2015 $9.99N/A (N/A)20,000 .. 50,0000%00:00 (00:00)
534 Heavy Fire: Shattered Spear Oct 23, 2015 $3.99N/A (N/A)0 .. 20,0000%00:00 (00:00)
535 Samudai Feb 9, 2015 $2.99N/A (N/A)20,000 .. 50,0000%00:00 (00:00)
536 Burstfire Sep 24, 2015 N/AN/A (N/A)50,000 .. 100,0000%00:00 (00:00)
537 The Entente Gold Jun 16, 2014 $1.99N/A (N/A)50,000 .. 100,0000%00:00 (00:00)
538 Rulers of Nations Jul 16, 2014 $19.99N/A (N/A/63%)0 .. 20,0000%00:00 (00:00)
539 R.I.P.D.: The Game Jul 16, 2013 $9.99N/A (N/A)20,000 .. 50,0000%00:00 (00:00)
540 Control Craft 2 Feb 15, 2016 $2.99N/A (N/A)0 .. 20,0002.78%05:20 (01:46)
541 Lost in Paradise Aug 20, 2015 $2.99N/A (N/A)20,000 .. 50,0000%00:00 (00:00)
542 Hydraulic Empire Jul 31, 2015 $7.99N/A (N/A)0 .. 20,0000%00:00 (00:00)
543 Infection: Humanity's Last Gasp May 26, 2016 $9.99N/A (N/A)0 .. 20,0000%00:00 (00:00)
544 The Kings' Crusade Oct 8, 2010 $9.99N/A (N/A/71%)50,000 .. 100,0000%00:00 (00:00)
545 Dead But Alive! Southern England Oct 2, 2015 $14.99N/A (N/A)0 .. 20,0000%00:00 (00:00)
546 Pain Train 2 Mar 16, 2017 $6.99N/A (N/A)0 .. 20,0000%00:00 (00:00)
547 Strategic War in Europe Mar 21, 2014 $14.99N/A (N/A)50,000 .. 100,0000%00:00 (00:00)
548 Zombie Apocalypse: Escape The Undead City Jun 17, 2016 $0.5N/A (N/A)0 .. 20,0000%00:00 (00:00)
549 Gratuitous Space Battles 2 Apr 16, 2015 $9.99N/A (N/A)20,000 .. 50,0000%00:00 (00:00)
550 Dark Matter Oct 17, 2013 $9.99N/A (N/A)20,000 .. 50,0000%00:00 (00:00)
551 Wave of Darkness Nov 5, 2015 $29.99N/A (N/A)0 .. 20,0000%00:00 (00:00)
552 Risk Jun 10, 2013 $9.99N/A (N/A)20,000 .. 50,0000%00:00 (00:00)
553 Kick-Ass 2 Aug 15, 2014 $19.99N/A (N/A)0 .. 20,0000%00:00 (00:00)
554 Dungeons - The Dark Lord Sep 27, 2011 $19.99N/A (N/A/72%)100,000 .. 200,0000%00:00 (00:00)
555 Mechs & Mercs: Black Talons Jan 9, 2015 $9.99N/A (N/A)0 .. 20,0000%00:00 (00:00)
556 Stellar Impact Apr 12, 2012 $9.993% (37%/74%)50,000 .. 100,0000%00:00 (00:00)
557 Tiamat X May 29, 2015 $1.99N/A (N/A)50,000 .. 100,0000%00:00 (00:00)
558 Blue Sheep Mar 31, 2016 $1.99N/A (N/A)0 .. 20,0000%00:00 (00:00)
559 Knight Adventure Oct 15, 2015 $0.99N/A (N/A)20,000 .. 50,00011.17%04:20 (04:34)
560 Urban Empire Jan 20, 2017 $29.992% (35%/62%)50,000 .. 100,0000%00:00 (00:00)
561 CTU: Counter Terrorism Unit Apr 22, 2016 $14.99N/A (N/A)0 .. 20,0000%00:00 (00:00)
562 Into the Void Dec 4, 2015 $4.99N/A (N/A)20,000 .. 50,0000%00:00 (00:00)
563 Sim Junta Aug 18, 2015 $0.99N/A (N/A)0 .. 20,0000%00:00 (00:00)
564 Arma Tactics Oct 1, 2013 $8.992% (34%/47%)200,000 .. 500,0000.77%00:18 (00:06)
565 Ranger of the jungle Jul 18, 2016 $3.99N/A (N/A)0 .. 20,0000%00:00 (00:00)
566 Jagged Alliance Flashback Oct 21, 2014 $19.992% (33%)20,000 .. 50,0000%00:00 (00:00)
567 Shadows of War Jan 2, 2015 $2.992% (33%)20,000 .. 50,0000%00:00 (00:00)
568 Disciples III - Resurrection Oct 11, 2011 $14.99N/A (N/A/63%)100,000 .. 200,0000%00:00 (00:00)
569 Ground Pounders Jul 15, 2014 $4.99N/A (N/A)0 .. 20,0000%00:00 (00:00)
570 Psichodelya Aug 8, 2014 $1.99N/A (N/A)50,000 .. 100,0000.67%01:05 (00:21)
571 Zombie Zoeds May 20, 2015 $0.49N/A (N/A)200,000 .. 500,0000%00:00 (00:00)
572 - Arcane RERaise - Apr 4, 2017 $2.99N/A (N/A)100,000 .. 200,00013.24%03:31 (04:03)
573 Ku: Shroud of the Morrigan Mar 17, 2014 $4.99N/A (N/A)20,000 .. 50,0000%00:00 (00:00)
574 Robotex Nov 19, 2014 $4.992% (31%)100,000 .. 200,0000%00:00 (00:00)
575 Tank Operations: European Campaign Nov 22, 2013 $14.992% (31%)50,000 .. 100,0000%00:00 (00:00)
576 Evopollution Apr 23, 2014 $4.99N/A (N/A)20,000 .. 50,0000%00:00 (00:00)
577 A Game of Thrones - Genesis Sep 28, 2011 $9.991% (30%)200,000 .. 500,0000%00:00 (00:00)
578 Power of Defense Aug 4, 2010 $9.99N/A (N/A)0 .. 20,0000%00:00 (00:00)
579 Defenders of Time Nov 4, 2014 N/AN/A (N/A/55%)0 .. 20,0000%00:00 (00:00)
580 Solar Shifter EX Sep 11, 2015 $4.99N/A (N/A)20,000 .. 50,0000%00:00 (00:00)
581 Hard Truck Apocalypse: Arcade / Ex Machina: Arcade Mar 14, 2014 $0.741% (26%)20,000 .. 50,0000%00:00 (00:00)
582 Gridberd Sep 7, 2015 $6.99N/A (N/A)200,000 .. 500,0000%00:00 (00:00)
583 Zombies on a Plane Mar 25, 2016 $4.99N/A (N/A)0 .. 20,0000%00:00 (00:00)
584 APOX Jan 20, 2011 $14.99N/A (N/A/48%)50,000 .. 100,0000%00:00 (00:00)
585 The Asskickers-Steam Edition Feb 6, 2015 $9.99N/A (N/A)0 .. 20,0000%00:00 (00:00)
586 Elite vs. Freedom May 31, 2016 $4.99N/A (N/A)0 .. 20,0000%00:00 (00:00)
587 One Star Apr 17, 2017 $2.99N/A (N/A)50,000 .. 100,0000%00:00 (00:00)
588 Lords of the Black Sun Sep 12, 2014 $29.990% (21%)20,000 .. 50,0000%00:00 (00:00)
589 Human Extinction Simulator Jan 21, 2015 $19.99N/A (N/A)0 .. 20,0000%00:00 (00:00)
590 Gemini Wars Nov 2, 2012 $14.990% (18%/53%)20,000 .. 50,0000%00:00 (00:00)
591 Tryst Sep 14, 2012 $14.99N/A (N/A/50%)0 .. 20,0000%00:00 (00:00)
592 Prison Tycoon 3: Lockdown Jan 29, 2008 $9.990% (15%)20,000 .. 50,0000%00:00 (00:00)
593 Once Bitten, Twice Dead! Jul 7, 2015 $4.99N/A (N/A)20,000 .. 50,0000%00:00 (00:00)
594 Citadels Jul 25, 2013 $14.990% (12%/20%)20,000 .. 50,0000%00:00 (00:00)
595 Star Project Aug 4, 2016 $1.99N/A (N/A)100,000 .. 200,0000%00:00 (00:00)
596 Bloodbath Jun 16, 2014 $14.99N/A (N/A)0 .. 20,0000%00:00 (00:00)
597 Magnetic By Nature Nov 10, 2014 $9.99N/A (N/A)20,000 .. 50,0000%00:00 (00:00)

Owners of this game also own:

Access restricted.

This feature is only available to users with special access rights. Sorry.

If you want to proceed, you need to register or log in first and then back Steam Spy on Patreon. Look for Indie or Pro pledge.

Don't forget to use the same email as on Steam Spy!

Playtime distribution:

Access restricted.

This feature is only available to users with special access rights. Sorry.

If you want to proceed, you need to register or log in first and then back Steam Spy on Patreon. Look for Indie or Pro pledge.

Don't forget to use the same email as on Steam Spy!

Playtime (2 weeks):

Access restricted.

This feature is only available to users with special access rights. Sorry.

If you want to proceed, you need to register or log in first and then back Steam Spy on Patreon. Look for Indie or Pro pledge.

Don't forget to use the same email as on Steam Spy!

User reviews:

Login required.

Please register or log in to see this information.